sat.trackr.live / text

‹ back to catalog

IRIDE-MS2-HEO-7

NORAD 68981 · 2026-100B

PAYLOAD ACTIVE UNKNOWN

§ Identity

Operator
Country
IT
Launch date
2026-05-03
Launch site
AFWTR
Launch vehicle
Mass (kg)
RCS (m²)

External: N2YO · Heavens-Above · Gunter

§ Orbital elements

Epoch: 2026-05-25T03:26:04.082784Z

Period
96.58 min
Inclination
97.7386°
Eccentricity
0.0003538
Mean motion
14.91040232 rev/d
Perigee alt
592.2 km
Apogee alt
597.2 km
Semi-major
6,972.8 km
B*
1.3951e-4
RAAN
43.0056°
Arg perigee
207.1306°
Mean anomaly
152.9728°
Rev number
326

§ Raw data

IRIDE-MS2-HEO-71 68981U 26100B   26145.14310281  .00001325  00000+0  13951-3 0  99912 68981  97.7386  43.0056 0003538 207.1306 152.9728 14.91040232  3261

JSON: /api/v1/satellites/68981 · /tle

For live sub-satellite position, see the globe view (requires WebGL).

§ Visibility from observer

Set your observer location to see the next 7 days of passes ≥ 10°. The values pass through the URL so the page stays shareable.

No JS? Fill the form by hand. The geolocation button needs JavaScript.